FENGYUN 1C DEB, 36729

Orbit data source: Space-Track

FENGYUN 1C DEB, 36729 is space debris in SSO originally from a launch on Mon, 10 May 1999 UTC launched from the Taiyaun Space Center, China (TSC). Fengyun 1C debris stems from the Chinese weather satellite Fengyun-1C, which was intentionally destroyed by a Chinese anti-satellite missile in 2007. This event dramatically increased the amount of space debris, with thousands of trackable fragments posing hazards to satellites and human spaceflight. The Fengyun 1C debris cloud has become a focal point in discussions about space sustainability and the need for international regulations to prevent the creation of new debris.

Loading next visibility...
Identifier
36729, 1999-025EBB
Orbit
SSO
Country
Flag of CNCN / PRC
Related business
Manufacturer
Unknown
Mission
Spacecraft
Bus & Motor
Unknown
Mass
Unknown
Launch date (UTC)
1999-05-10 (27 years ago)
Launch vehicle
Unknown
Launch site
Taiyaun Space Center, China (TSC)
Object type
Payload
Rocket body
Debris
Shape & HBR
Unknown shape, 0.1 m
Radar Cross Section
Small (<0.1 m²)

Expand to show TLE details & history
Last TLE update: 17 hours ago

TLE from 17 hours ago
0 FENGYUN 1C DEB
1 36729U 99025EBB 26120.17241158  .00000378  00000-0  23422-3 0  9996
2 36729  98.7249 102.7627 0045323 222.8526 136.9109 14.10460992892034
Epoch: 2026-04-30T04:08Z
TLE epoch observation values (Epoch: 2026-04-30T04:08:16.360Z)
Latitude
-0.00008°
Longitude
-177.42829°
Altitude
884.719 km
Speed
7.398 km/s
True Right ascension
06h 51m 03s
True Declination
0° 00' 00"
Sunlit
Object was in daylight at epoch
Visualization orbit readout
Latitude
Unknown
Longitude
Unknown
Altitude
Unknown
Speed
Unknown
Apparent Right ascension
Unknown
Apparent Declination
Unknown
Sunlit
N/A
Visualization observer readout
Local Sidereal Time
04:46:47
Azimuth
Unknown
Elevation
Unknown
Doppler factor
Unknown
Orbital elements
Apogee altitude
887.749 km
Perigee altitude
822.184 km
Semi-major axis
7,233.104 km
Eccentricity
0.00453
Inclination
98.7249°
RAAN
102.7627°
Arg. of periapsis
222.8526°
True anomaly
137.26423°
Mean anomaly
136.9109°
Eccentric anomaly
137.08771°
Mean motion
3.52822 °/min
Orbital period
102.03 mins
BSTAR
0.00023422
Loading maneuver chart data...
Computing Atmospheric mass density...

Documentation

Showing up to 5 results
|